Newark, NJ

2:01 PM EDT on October 14, 2019 (GMT -0400)
Newark International

Weather History for KEWR - May, 2019

Change the Weather History Date:

Monday, May 13, 2019

  Actual Average Record
Temperature  
Mean Temperature 46 °F 62 °F  
Max Temperature 50 °F 71 °F 92 °F (1956)
Min Temperature 43 °F 52 °F 37 °F (1938)
Degree Days  
Heating Degree Days 18 5  
Month to date heating degree days 80 80  
Since 1 July heating degree days 4674 4800  
Cooling Degree Days 0 1  
Month to date cooling degree days 2 13  
Year to date cooling degree days 17 25  
Moisture  
Dew Point 44 °F    
Average Humidity 89    
Maximum Humidity 100    
Minimum Humidity 80    
Precipitation  
Precipitation 0.85 in 0.12 in 1.79 in (2017)
Month to date precipitation 4.32 1.61  
Year to date precipitation 19.97 16.41  
Snow  
Snow 0.00 in 0.00 in 0.00 in (2002)
Month to date snowfall 0.0 0.0  
Since 1 July snowfall 22.0 28.5  
Snow Depth 0.00 in    
Sea Level Pressure  
Sea Level Pressure 29.85 in    
Wind  
Wind Speed 9 mph ()    
Max Wind Speed 18 mph    
Max Gust Speed 23 mph    
Visibility 6.6 miles    
Events Rain    
T = Trace of Precipitation, MM = Missing Value Source: Averaged Metar Reports

Daily Weather History Graph

Daily Weather History Graph

Search for Another Location

Airport or City:

Astronomy

May. 13, 2019 Rise Set
Actual Time 5:41 AM EDT 8:04 PM EDT
Civil Twilight 5:11 AM EDT 8:35 PM EDT
Nautical Twilight 4:32 AM EDT 9:14 PM EDT
Astronomical Twilight 3:50 AM EDT 9:56 PM EDT
Moon 2:11 PM EDT (5/13) 3:01 AM EDT (5/13)
Length of Visible Light 15h 24m
Length of Day
14h 22m
Waxing Gibbous, 68% of the Moon is Illuminated
May 13
Waxing Gibbous
May 18
Full
May 26
Last Quarter
Jun 3
New
Jun 10
First Quarter

Hourly Weather History & Observations

Time (EDT) Temp. Windchill Dew Point Humidity Pressure Visibility Wind Dir Wind Speed Gust Speed Precip Events Conditions
12:51 AM 44.1 °F 39.0 °F 43.0 °F 96% 29.91 in 5.0 mi NNE 9.2 mph - 0.01 in Rain Light Rain
1:51 AM 43.0 °F 36.0 °F 42.1 °F 97% 29.89 in 3.0 mi NNE 13.8 mph - 0.00 in Rain Light Rain
2:51 AM 43.0 °F 36.8 °F 41.0 °F 93% 29.88 in 6.0 mi NNE 11.5 mph - 0.00 in   Light Drizzle
3:51 AM 43.0 °F 37.2 °F 41.0 °F 93% 29.87 in 6.0 mi NNE 10.4 mph - 0.00 in   Light Drizzle
4:33 AM 43.0 °F 36.8 °F 41.0 °F 93% 29.86 in 8.0 mi NNE 11.5 mph - 0.00 in   Light Drizzle
4:51 AM 43.0 °F 37.2 °F 41.0 °F 93% 29.86 in 7.0 mi NE 10.4 mph - 0.00 in   Light Drizzle
5:15 AM 43.0 °F 37.7 °F 42.1 °F 97% 29.87 in 7.0 mi NNE 9.2 mph - 0.00 in   Light Drizzle
5:51 AM 44.1 °F 40.1 °F 43.0 °F 96% 29.88 in 3.0 mi NNE 6.9 mph - 0.00 in   Light Drizzle
6:51 AM 45.0 °F 41.8 °F 44.1 °F 97% 29.89 in 5.0 mi NE 5.8 mph - 0.00 in   Light Drizzle
7:51 AM 46.0 °F 41.9 °F 44.1 °F 93% 29.89 in 5.0 mi NE 8.1 mph - 0.00 in Rain Light Rain
8:51 AM 46.9 °F - 44.1 °F 90% 29.88 in 6.0 mi ENE 10.4 mph - 0.04 in Rain Light Rain
9:51 AM 48.0 °F - 45.0 °F 89% 29.88 in 7.0 mi ENE 8.1 mph - 0.04 in Rain Light Rain
10:51 AM 48.0 °F - 44.1 °F 86% 29.86 in 5.0 mi ENE 10.4 mph - 0.02 in Rain Rain
11:04 AM 48.0 °F - 44.1 °F 86% 29.86 in 3.0 mi ENE 9.2 mph 20.7 mph 0.04 in Rain Rain
11:51 AM 48.9 °F - 45.0 °F 86% 29.86 in 10.0 mi ENE 8.1 mph - 0.08 in Rain Light Rain
12:51 PM 48.9 °F - 44.1 °F 83% 29.83 in 7.0 mi ENE 10.4 mph - 0.01 in Rain Light Rain
1:14 PM 48.9 °F - 44.1 °F 83% 29.84 in 6.0 mi East 8.1 mph - 0.00 in Rain Light Rain
1:51 PM 48.9 °F - 45.0 °F 86% 29.83 in 4.0 mi East 9.2 mph - 0.05 in Rain Rain
2:51 PM 48.9 °F - 46.0 °F 90% 29.81 in 8.0 mi East 5.8 mph - 0.09 in Rain Light Rain
3:47 PM 50.0 °F - 46.4 °F 87% 29.80 in 10.0 mi ENE 4.6 mph - 0.01 in Rain Light Rain
3:51 PM 50.0 °F - 46.0 °F 86% 29.80 in 10.0 mi NNE 3.5 mph - 0.01 in Rain Light Rain
4:22 PM 48.9 °F - 45.0 °F 86% 29.84 in 2.0 mi WNW 9.2 mph - 0.03 in Rain Rain
4:26 PM 48.9 °F - 45.0 °F 86% 29.84 in 2.0 mi West 12.7 mph 19.6 mph 0.06 in Rain Heavy Rain
4:51 PM 48.0 °F - 46.0 °F 93% 29.85 in 2.0 mi WNW 10.4 mph - 0.21 in Rain Rain
5:51 PM 48.0 °F - 46.0 °F 93% 29.83 in 4.0 mi NNE 12.7 mph - 0.23 in Rain Rain
6:51 PM 48.9 °F - 46.0 °F 90% 29.81 in 10.0 mi NE 13.8 mph - 0.05 in Rain Light Rain
7:32 PM 48.9 °F - 46.0 °F 90% 29.82 in 10.0 mi NE 11.5 mph - 0.00 in   Overcast
7:51 PM 48.9 °F - 45.0 °F 86% 29.83 in 10.0 mi ENE 10.4 mph - 0.00 in   Overcast
8:19 PM 48.9 °F - 44.1 °F 83% 29.84 in 10.0 mi NE 8.1 mph - N/A   Overcast
8:51 PM 48.0 °F - 43.0 °F 83% 29.81 in 7.0 mi ENE 9.2 mph 21.9 mph 0.01 in Rain Rain
9:51 PM 48.0 °F - 43.0 °F 83% 29.86 in 10.0 mi ENE 10.4 mph - 0.00 in   Overcast
10:51 PM 48.0 °F - 43.0 °F 83% 29.85 in 10.0 mi ENE 5.8 mph - N/A   Overcast
11:51 PM 48.0 °F - 43.0 °F 83% 29.84 in 10.0 mi East 4.6 mph - N/A   Overcast